Regional Weather Roundup
Issued by NWS Glasgow, MT

Home | Current Version | Previous Version | Text Only | Print | Product List | Glossary On
Versions: 1 2 3 4 5 6 7 8 9 10 11 12 13 14 15 16 17 18 19 20 21 22 23 24 25 26 27 28 29 30 31 32 33 34 35 36 37 38 39 40 41 42 43 44 45 46 47 48
000
ASUS45 KGGW 051215
RWRGGW
HOURLY REGIONAL WEATHER ROUNDUP FOR NORTHEAST MONTANA
NATIONAL WEATHER SERVICE GLASGOW MONTANA
600 AM MDT WED AUG 05 2015

NOTE: "FAIR" INDICATES FEW OR NO CLOUDS BELOW 12,000 FEET WITH NO
SIGNIFICANT WEATHER AND/OR OBSTRUCTIONS TO VISISBILITY.

NORTHEAST MONTANA


CITY           SKY/WX    TMP DP  RH WIND       PRES   REMARKS
GLASGOW        CLEAR     61  59  93 E6        29.88S
6HR MIN TEMP:  60; 6HR MAX TEMP:  67; 6HR PCP: TRACE;

PLENTYWOOD       N/A     63  61  93 S5          N/A
WOLF POINT     CLOUDY    63  61  93 CALM      29.89R FOG
JORDAN           N/A     56  54  93 CALM      29.91S
WINNETT          N/A     49  47  93 W1          N/A
SIDNEY         CLEAR     63  59  88 CALM      29.90S
GLENDIVE         N/A    N/A N/A N/A MISG        N/A
MALTA            N/A     58  56  93 E1          N/A
SCOBEY           N/A     59  55  87 CALM      29.89S

FORT PECK REPORTS


CITY           SKY/WX    TMP DP  RH WIND       PRES   REMARKS
FORT PECK        N/A     65  62  90 E3          N/A
THE PINES        N/A     62  60  93 S2          N/A

SOUTHEAST MONTANA


CITY           SKY/WX    TMP DP  RH WIND       PRES   REMARKS
BILLINGS       PTCLDY    59  52  77 SW6       29.97F
MILES CITY     CLEAR     58  58 100 S8        29.93S
BAKER          CLEAR     59  56  89 S6        29.96S
LIVINGSTON     PTCLDY    54  48  80 N6        30.02R

CENTRAL MONTANA


CITY           SKY/WX    TMP DP  RH WIND       PRES   REMARKS
HAVRE          CLEAR     57  52  83 NW8       29.87F
LEWISTOWN      CLEAR     52  46  80 SE9       29.97F
GREAT FALLS    CLEAR     50  47  89 N5        29.93S
CUT BANK       CLOUDY    56  52  86 NW8       29.95S
HELENA         CLEAR     55  44  66 W3        29.97F
BUTTE          MOCLDY    47  44  90 CALM      30.07R
BOZEMAN        PTCLDY    54  50  86 S3        30.02R

WESTERN MONTANA


CITY           SKY/WX    TMP DP  RH WIND       PRES   REMARKS
MISSOULA       LGT RAIN  58  53  84 N6        29.98R
KALISPELL      NOT AVBL

NORTH DAKOTA


CITY           SKY/WX    TMP DP  RH WIND       PRES   REMARKS
WILLISTON      CLOUDY    68  62  81 CALM      29.91R
DICKINSON      MOCLDY    60  57  89 SW7       29.92F
MINOT          CLOUDY    65  57  75 S6        29.92S
BISMARCK       CLOUDY    63  60  90 E8        29.94F

SOUTHERN SASKATCHEWAN


CITY           SKY/WX    TMP DP  RH WIND       PRES   REMARKS
REGINA         LGT RAIN  61  57  88 E9        29.86F
MOOSE JAW      MOCLDY    63  61  94 SE5       29.86S
ESTEVAN        LGT RAIN  61  59  94 SE12G18   29.91R FOG
SWIFT CURRENT  CLEAR     55  54  94 S7        29.84S



USA.gov is the U.S. government's official web portal to all federal, state and local government web resources and services.